CW9648 Weather Reports


Display with metric or nautical units.
time (UTC)temp
F
wind
direction
speed
MPH
gust
MPH
rain 1hr
in
rain 24hr
in
rain mn
in
humidity
%
barometer
mb
20260504194004 81 156 4.0 11.0 0.00 0.00 0.00 51 1013.8
20260504193525 81 156 4.0 11.0 0.00 0.00 0.00 48 1013.9
20260504193003 81 158 4.0 10.0 0.00 0.00 0.00 52 1014.0
20260504192503 82 170 3.0 9.0 0.00 0.00 0.00 49 1014.1
20260504192003 81 165 4.0 8.0 0.00 0.00 0.00 51 1014.2
20260504191504 81 182 3.0 8.0 0.00 0.00 0.00 50 1014.2
20260504191025 81 184 3.0 9.0 0.00 0.00 0.00 48 1014.4
20260504190504 81 162 4.0 11.0 0.00 0.00 0.00 50 1014.5
20260504190004 80 157 6.0 11.0 0.00 0.00 0.00 51 1014.5
20260504185504 80 154 5.0 12.0 0.00 0.00 0.00 50 1014.6
20260504185004 80 155 3.0 12.0 0.00 0.00 0.00 50 1014.7
20260504184504 80 164 3.0 9.0 0.00 0.00 0.00 49 1014.7
20260504184004 80 158 4.0 11.0 0.00 0.00 0.00 50 1014.7
20260504183503 79 160 5.0 11.0 0.00 0.00 0.00 50 1014.7
20260504183003 80 161 3.0 8.0 0.00 0.00 0.00 51 1014.8
20260504182503 79 153 4.0 11.0 0.00 0.00 0.00 52 1015.0
20260504182003 79 127 4.0 11.0 0.00 0.00 0.00 51 1015.0
20260504181503 79 20 3.0 9.0 0.00 0.00 0.00 52 1015.2
20260504181024 79 47 4.0 11.0 0.00 0.00 0.00 53 1015.4
20260504180503 79 356 3.0 11.0 0.00 0.00 0.00 53 1015.5
20260504180004 79 1 4.0 11.0 0.00 0.00 0.00 53 1015.6
20260504175503 78 360 4.0 11.0 0.00 0.00 0.00 53 1015.8
20260504175024 78 360 4.0 9.0 0.00 0.00 0.00 50 1015.8
20260504174524 78 1 3.0 8.0 0.00 0.00 0.00 54 1015.8
20260504174024 78 360 3.0 9.0 0.00 0.00 0.00 53 1015.8
20260504173503 77 359 3.0 9.0 0.00 0.00 0.00 52 1015.9
20260504173003 77 331 3.0 8.0 0.00 0.00 0.00 50 1015.9
20260504172524 78 348 4.0 10.0 0.00 0.00 0.00 54 1016.0
20260504172003 77 5 5.0 11.0 0.00 0.00 0.00 53 1016.1
20260504171504 77 2 4.0 11.0 0.00 0.00 0.00 52 1016.1
20260504171003 76 358 3.0 8.0 0.00 0.00 0.00 56 1016.1
20260504170531 76 358 3.0 8.0 0.00 0.00 0.00 51 1016.1
20260504151006 72 158 4.0 11.0 0.00 0.00 0.00 65 1017.1
20260504150524 72 155 3.0 11.0 0.00 0.00 0.00 65 1017.2
20260504141003 68 192 2.0 5.0 0.00 0.00 0.00 70 1017.4
20260504140524 68 179 3.0 8.0 0.00 0.00 0.00 71 1017.4
20260504130503 61 167 1.0 5.0 0.00 0.00 0.00 92 1017.2
20260504110525 56 0 0.0 0.0 0.00 0.01 0.00 89 1016.9
20260504100525 59 172 0.0 1.0 0.00 0.01 0.00 83 1017.1
20260504082004 62 360 2.0 5.0 0.00 0.01 0.00 78 1017.1
20260504081504 62 360 2.0 4.0 0.00 0.01 0.00 78 1017.2
20260504081004 62 360 2.0 5.0 0.00 0.01 0.00 78 1017.3
20260504080504 62 360 2.0 5.0 0.00 0.01 0.00 78 1017.2
20260504050504 63 151 1.0 4.0 0.00 0.01 0.00 77 1019.1
20260504050025 63 149 1.0 4.0 0.00 0.01 0.00 76 1019.0
20260504045525 63 126 1.0 3.0 0.00 0.01 0.01 77 1018.9
20260504045004 63 110 1.0 2.0 0.00 0.01 0.01 78 1018.9
20260504044525 63 112 1.0 2.0 0.00 0.01 0.01 77 1018.9
20260504044004 63 163 1.0 4.0 0.00 0.01 0.01 76 1019.1
20260504043504 63 156 1.0 3.0 0.00 0.01 0.01 75 1019.1
20260504043025 63 150 1.0 3.0 0.00 0.01 0.01 75 1019.1
20260504042525 63 141 0.0 2.0 0.00 0.01 0.01 77 1019.1
20260504042004 64 127 0.0 2.0 0.00 0.01 0.01 76 1019.1
20260504041504 64 131 0.0 2.0 0.00 0.01 0.01 76 1018.9
20260504041004 65 167 0.0 2.0 0.00 0.01 0.01 73 1018.9
20260504040504 65 166 0.0 3.0 0.00 0.01 0.01 72 1019.1
20260504040025 65 158 1.0 3.0 0.00 0.01 0.01 71 1019.0
20260504035525 65 155 1.0 4.0 0.00 0.01 0.01 72 1018.8
20260504035004 65 154 1.0 4.0 0.00 0.01 0.01 73 1018.9
20260504034504 65 142 1.0 4.0 0.00 0.01 0.01 73 1019.1
20260504034004 65 110 1.0 3.0 0.00 0.01 0.01 74 1019.0
20260504033504 64 150 1.0 4.0 0.00 0.01 0.01 75 1018.9
20260504033025 64 141 1.0 4.0 0.00 0.01 0.01 77 1019.0
20260504032532 64 353 1.0 3.0 0.00 0.01 0.01 79 1019.0
20260504032004 63 347 1.0 4.0 0.00 0.01 0.01 84 1018.9
20260504031504 61 355 1.0 8.0 0.00 0.01 0.01 87 1018.8
20260504031004 61 355 0.0 8.0 0.00 0.01 0.01 88 1018.8
20260504030504 61 0 0.0 0.0 0.00 0.01 0.01 88 1018.9
20260504030004 61 0 0.0 0.0 0.00 0.01 0.01 88 1018.7
20260504025504 61 0 0.0 0.0 0.00 0.01 0.01 87 1018.7
20260504025004 61 0 0.0 0.0 0.00 0.01 0.01 87 1018.8
20260504024525 61 0 0.0 0.0 0.00 0.01 0.01 86 1018.7
20260504024004 62 0 0.0 0.0 0.00 0.01 0.01 86 1018.8
20260504023504 62 0 0.0 0.0 0.00 0.01 0.01 86 1018.8
20260504023025 62 0 0.0 0.0 0.00 0.01 0.01 86 1018.8
20260504022525 62 0 0.0 0.0 0.00 0.01 0.01 85 1018.8
20260504022004 62 0 0.0 0.0 0.00 0.01 0.01 84 1018.6
20260504021525 62 0 0.0 0.0 0.00 0.01 0.01 84 1018.6
20260504021004 63 0 0.0 0.0 0.00 0.01 0.01 84 1018.4
20260504020504 63 0 0.0 0.0 0.00 0.01 0.01 82 1018.5
20260504015504 64 0 0.0 0.0 0.00 0.01 0.01 82 1018.4
20260504015025 64 0 0.0 0.0 0.00 0.01 0.01 82 1018.4
20260504014525 64 0 0.0 0.0 0.00 0.01 0.01 81 1018.4
20260504014004 64 0 0.0 0.0 0.00 0.01 0.01 81 1018.3
20260504013525 65 0 0.0 0.0 0.00 0.01 0.01 80 1018.3
20260504013004 66 0 0.0 0.0 0.00 0.01 0.01 79 1018.3
20260504012504 66 0 0.0 0.0 0.00 0.01 0.01 76 1018.1
20260504012004 66 0 0.0 0.0 0.00 0.01 0.01 77 1018.1
20260504011504 67 0 0.0 0.0 0.00 0.01 0.01 78 1018.1
20260504011004 68 0 0.0 0.0 0.00 0.01 0.01 77 1018.1
20260504010525 68 0 0.0 0.0 0.00 0.01 0.01 76 1018.1
20260504010004 69 0 0.0 0.0 0.00 0.01 0.01 73 1018.1
20260504005504 69 0 0.0 0.0 0.00 0.01 0.01 72 1018.2
20260504005004 70 0 0.0 0.0 0.00 0.01 0.01 70 1018.2
20260504004525 70 0 0.0 0.0 0.00 0.01 0.01 74 1018.3
20260504004004 71 0 0.0 0.0 0.00 0.01 0.01 73 1018.1
20260504003504 72 0 0.0 0.0 0.00 0.01 0.01 70 1018.1
20260504003004 72 0 0.0 0.0 0.00 0.01 0.01 69 1018.1
20260504002525 73 0 0.0 0.0 0.00 0.01 0.01 66 1018.1
20260504002004 73 0 0.0 0.0 0.00 0.01 0.01 63 1018.2
20260504001504 74 180 0.0 1.0 0.00 0.01 0.01 61 1018.1
20260504000504 75 0 0.0 0.0 0.00 0.01 0.01 54 1018.2
20260504000004 75 0 0.0 0.0 0.00 0.01 0.01 54 1018.2
20260503235504 76 180 0.0 1.0 0.00 0.01 0.01 51 1018.2
20260503235004 76 177 0.0 3.0 0.00 0.01 0.01 50 1018.4
20260503234504 77 167 1.0 5.0 0.00 0.01 0.01 47 1018.4
20260503234004 77 169 1.0 5.0 0.00 0.01 0.01 47 1018.4
20260503233504 78 170 1.0 4.0 0.00 0.01 0.01 46 1018.4
20260503232504 78 167 2.0 4.0 0.00 0.01 0.01 46 1018.4
20260503232004 78 162 2.0 4.0 0.00 0.01 0.01 45 1018.4
20260503231504 79 162 2.0 4.0 0.00 0.01 0.01 45 1018.5
20260503231004 79 169 1.0 4.0 0.00 0.01 0.01 45 1018.6
20260503230504 80 176 1.0 5.0 0.00 0.01 0.01 46 1018.5
20260503230004 80 161 2.0 5.0 0.00 0.01 0.01 45 1018.5
20260503225503 80 156 2.0 5.0 0.00 0.01 0.01 42 1018.5
20260503225004 80 159 2.0 6.0 0.00 0.01 0.01 44 1018.5
20260503224504 81 176 2.0 6.0 0.00 0.01 0.01 42 1018.5
20260503224003 82 234 1.0 3.0 0.00 0.01 0.01 41 1018.6
20260503223504 82 223 1.0 3.0 0.00 0.01 0.01 41 1018.6
20260503223004 82 225 1.0 3.0 0.00 0.01 0.01 42 1018.6
20260503222504 82 228 1.0 4.0 0.00 0.01 0.01 41 1018.7
20260503222004 81 224 1.0 4.0 0.00 0.01 0.01 39 1018.8
20260503221504 81 4 1.0 3.0 0.00 0.01 0.01 40 1018.9
20260503221004 80 323 2.0 5.0 0.00 0.01 0.01 38 1018.9
20260503220504 81 284 2.0 5.0 0.00 0.01 0.01 37 1018.8
20260503220004 81 168 1.0 3.0 0.00 0.01 0.01 39 1018.9
20260503215504 81 237 2.0 4.0 0.00 0.01 0.01 40 1018.9
20260503215004 81 270 2.0 4.0 0.00 0.01 0.01 40 1019.0
20260503214504 82 239 1.0 4.0 0.00 0.01 0.01 38 1019.1
20260503214004 81 192 2.0 8.0 0.00 0.01 0.01 35 1019.1
20260503213503 82 177 2.0 8.0 0.00 0.01 0.01 35 1019.2
20260503213004 82 228 2.0 5.0 0.00 0.01 0.01 37 1019.2
20260503212504 82 261 1.0 4.0 0.00 0.01 0.01 38 1019.3
20260503212025 82 203 1.0 4.0 0.00 0.01 0.01 38 1019.4
20260503211504 81 179 2.0 4.0 0.00 0.01 0.01 39 1019.5
20260503211004 80 170 2.0 7.0 0.00 0.01 0.01 41 1019.7
20260503210503 81 162 3.0 7.0 0.00 0.01 0.01 43 1019.8
20260503210004 81 166 3.0 7.0 0.00 0.01 0.01 40 1019.9
20260503205504 81 178 2.0 8.0 0.00 0.01 0.01 41 1020.0
20260503205024 81 283 2.0 8.0 0.00 0.01 0.01 39 1020.1
20260503204503 81 213 2.0 7.0 0.00 0.01 0.01 40 1020.2
20260503204025 81 224 2.0 5.0 0.00 0.01 0.01 39 1020.3
20260503203504 81 220 2.0 5.0 0.00 0.01 0.01 40 1020.4
20260503203004 81 233 2.0 5.0 0.00 0.01 0.01 41 1020.5
20260503202503 81 315 3.0 9.0 0.00 0.01 0.01 46 1020.5
20260503202004 80 311 3.0 9.0 0.00 0.01 0.01 44 1020.6
20260503201504 80 255 2.0 9.0 0.00 0.01 0.01 42 1020.7
20260503201003 80 187 2.0 6.0 0.00 0.01 0.01 44 1020.8
20260503200504 80 200 2.0 6.0 0.00 0.01 0.01 44 1020.8
20260503200004 80 184 2.0 5.0 0.00 0.01 0.01 46 1020.9
20260503195504 80 98 3.0 5.0 0.00 0.01 0.01 47 1020.9
20260503195025 79 338 3.0 6.0 0.00 0.01 0.01 49 1021.0
20260503194503 78 3 2.0 7.0 0.00 0.01 0.01 48 1021.1